contact:dominique.lefevre@mio.osupytheas.fr, maurice.libes@osupytheas.fr, didier.mallarino@osupytheas.fr
Project:EMSO http://www.emso-fr.org/EMSO-France
Depth: 2436.0 m
Title:EMSO Ligure Ouest : Data MII capteur AQUADOPP
Date,Latitude,Longitude,X_East,Y_North,Z_Up,Amplitude_X,Amplitude_Y,Amplitude_Z,Batterie,SoundSpeed,Heading,Pitch,Roll,Pressure,TIS,Speed,Direction
, degrees North, degrees East, m.s-1, m.s-1,m.s-1, 1, 1, 1, Volt, m.s-1, degree, degree, degree, dbar, degree_C, m.s-1, degree
2023-06-20T00:04:03,42.805,6.029,-0.056,0.026,0.003,101.0,101.0,100.0,13.3,1505.2,331.2,-0.8,1.8,2471.518,13.28,0.061,294.9
2023-06-20T00:07:03,42.805,6.029,-0.033,0.021,0.017,102.0,100.0,99.0,13.4,1505.2,333.9,-0.8,1.8,2471.555,13.28,0.039,302.5
2023-06-20T00:10:03,42.805,6.029,-0.053,0.017,-0.025,101.0,100.0,101.0,13.4,1505.2,332.1,-0.8,1.8,2471.483,13.28,0.055,287.8
2023-06-20T00:13:03,42.805,6.029,-0.039,0.013,-0.02,101.0,100.0,100.0,13.4,1505.2,345.4,-0.8,1.8,2471.537,13.28,0.041,288.4
2023-06-20T00:16:03,42.805,6.029,-0.031,-0.015,-0.008,102.0,100.0,101.0,13.3,1505.2,331.2,-0.8,1.8,2471.494,13.29,0.034,244.2
2023-06-20T00:19:03,42.805,6.029,-0.034,-0.002,-0.019,101.0,101.0,100.0,13.4,1505.2,328.1,-0.7,1.8,2471.503,13.29,0.034,266.6
2023-06-20T00:22:03,42.805,6.029,-0.034,0.009,-0.03,99.0,100.0,101.0,13.4,1505.2,332.4,-0.7,1.8,2471.517,13.29,0.035,284.8
2023-06-20T00:25:03,42.805,6.029,-0.038,0.017,0.016,101.0,100.0,100.0,13.4,1505.2,321.4,-0.8,1.8,2471.501,13.29,0.041,294.1
2023-06-20T00:28:03,42.805,6.029,-0.045,0.006,-0.048,101.0,100.0,100.0,13.4,1505.2,339.3,-0.8,1.8,2471.489,13.29,0.045,277.6
2023-06-20T00:31:03,42.805,6.029,-0.059,-0.007,-0.012,101.0,101.0,100.0,13.4,1505.2,320.0,-0.8,1.8,2471.513,13.29,0.059,263.2
2023-06-20T00:34:03,42.805,6.029,-0.053,0.017,-0.049,100.0,101.0,101.0,13.3,1505.2,332.9,-0.7,1.8,2471.515,13.29,0.055,287.8
2023-06-20T00:37:03,42.805,6.029,-0.063,0.009,-0.016,102.0,100.0,100.0,13.3,1505.2,327.1,-0.8,1.8,2471.458,13.29,0.063,278.1
2023-06-20T00:40:03,42.805,6.029,-0.05,-0.023,-0.028,100.0,100.0,101.0,13.4,1505.2,334.4,-0.8,1.8,2471.491,13.29,0.055,245.3
2023-06-20T00:43:03,42.805,6.029,-0.064,0.026,-0.032,101.0,101.0,100.0,13.4,1505.2,348.4,-0.7,1.8,2471.471,13.29,0.069,292.1
2023-06-20T00:46:03,42.805,6.029,-0.043,-0.014,-0.029,101.0,101.0,101.0,13.4,1505.2,321.4,-0.8,1.8,2471.485,13.29,0.045,252.0
2023-06-20T00:49:03,42.805,6.029,-0.055,0.029,-0.023,101.0,101.0,101.0,13.4,1505.2,350.9,-0.8,1.8,2471.456,13.29,0.062,297.8
2023-06-20T00:52:03,42.805,6.029,-0.055,0.0,-0.06,99.0,102.0,101.0,13.4,1505.2,323.9,-0.8,1.8,2471.516,13.29,0.055,270.0
2023-06-20T00:55:03,42.805,6.029,-0.08,0.006,-0.033,99.0,102.0,101.0,13.4,1505.2,336.3,-0.8,1.8,2471.506,13.29,0.08,274.3
2023-06-20T00:58:03,42.805,6.029,-0.048,-0.001,-0.006,101.0,101.0,101.0,13.3,1505.2,318.9,-0.7,1.8,2471.483,13.29,0.048,268.8
2023-06-20T01:04:03,42.805,6.029,-0.023,-0.018,-0.014,102.0,103.0,101.0,13.4,1505.2,345.0,-0.8,1.8,2471.522,13.28,0.029,232.0
2023-06-20T01:07:03,42.805,6.029,-0.041,-0.014,-0.033,101.0,102.0,100.0,13.4,1505.2,320.3,-0.8,1.8,2471.531,13.28,0.043,251.1
2023-06-20T01:10:03,42.805,6.029,-0.045,-0.004,-0.03,101.0,101.0,101.0,13.4,1505.2,334.7,-0.7,1.8,2471.495,13.28,0.045,264.9
2023-06-20T01:13:03,42.805,6.029,-0.03,0.0,-0.01,100.0,99.0,101.0,13.4,1505.2,331.8,-0.7,1.8,2471.491,13.29,0.03,270.0
2023-06-20T01:16:03,42.805,6.029,-0.035,0.008,-0.022,102.0,101.0,100.0,13.4,1505.2,328.0,-0.8,1.9,2471.469,13.29,0.035,282.9
2023-06-20T01:19:03,42.805,6.029,-0.041,0.006,-0.034,100.0,100.0,101.0,13.3,1505.2,329.4,-0.8,1.8,2471.517,13.29,0.041,278.3
2023-06-20T01:22:03,42.805,6.029,-0.061,0.028,-0.014,101.0,100.0,101.0,13.4,1505.2,337.1,-0.8,1.8,2471.47,13.29,0.067,294.7
2023-06-20T01:25:03,42.805,6.029,-0.019,0.0,-0.019,102.0,102.0,100.0,13.3,1505.2,331.1,-0.7,1.8,2471.459,13.29,0.019,270.0
2023-06-20T01:28:03,42.805,6.029,-0.075,0.051,0.008,102.0,101.0,100.0,13.3,1505.2,339.5,-0.8,1.8,2471.499,13.29,0.09,304.2
2023-06-20T01:31:03,42.805,6.029,-0.055,0.003,-0.019,100.0,101.0,100.0,13.4,1505.2,320.1,-0.8,1.8,2471.46,13.29,0.055,273.1
2023-06-20T01:34:03,42.805,6.029,-0.05,0.001,-0.028,101.0,100.0,101.0,13.3,1505.2,333.9,-0.7,1.8,2471.452,13.29,0.05,271.1
2023-06-20T01:37:03,42.805,6.029,-0.026,0.006,-0.042,101.0,101.0,100.0,13.4,1505.2,348.0,-0.7,1.8,2471.5,13.29,0.026,283.0
2023-06-20T01:40:03,42.805,6.029,-0.056,0.017,-0.001,100.0,100.0,101.0,13.4,1505.2,321.6,-0.7,1.8,2471.507,13.29,0.058,286.9
2023-06-20T01:43:03,42.805,6.029,-0.021,-0.015,-0.055,99.0,100.0,101.0,13.4,1505.2,343.7,-0.7,1.8,2471.471,13.29,0.025,234.5
2023-06-20T01:46:03,42.805,6.029,-0.042,0.0,-0.032,101.0,102.0,100.0,13.4,1505.2,336.6,-0.8,1.8,2471.471,13.29,0.042,270.0
2023-06-20T01:49:03,42.805,6.029,-0.042,0.016,-0.027,101.0,101.0,100.0,13.4,1505.2,337.7,-0.8,1.8,2471.478,13.29,0.044,290.9
2023-06-20T01:52:03,42.805,6.029,-0.029,0.025,-0.03,102.0,101.0,100.0,13.4,1505.2,327.8,-0.7,1.8,2471.468,13.29,0.038,310.8
2023-06-20T01:55:03,42.805,6.029,-0.035,0.008,-0.025,101.0,101.0,100.0,13.4,1505.2,337.6,-0.8,1.8,2471.425,13.29,0.035,282.9
2023-06-20T01:58:03,42.805,6.029,-0.061,0.017,-0.058,100.0,102.0,101.0,13.4,1505.2,347.7,-0.8,1.8,2471.452,13.29,0.063,285.6
2023-06-20T02:04:03,42.805,6.029,-0.049,-0.004,-0.047,101.0,101.0,101.0,13.4,1505.2,339.8,-0.8,1.9,2471.479,13.28,0.049,265.3
2023-06-20T02:07:03,42.805,6.029,-0.048,0.014,-0.009,101.0,100.0,100.0,13.4,1505.2,348.6,-0.8,1.8,2471.492,13.28,0.05,286.3
2023-06-20T02:10:03,42.805,6.029,-0.055,0.006,-0.002,101.0,100.0,101.0,13.4,1505.2,339.4,-0.8,1.8,2471.459,13.28,0.055,276.2
2023-06-20T02:13:03,42.805,6.029,-0.07,-0.002,-0.055,101.0,100.0,101.0,13.3,1505.2,330.2,-0.8,1.8,2471.478,13.29,0.07,268.4
2023-06-20T02:16:03,42.805,6.029,-0.024,0.014,-0.015,100.0,101.0,100.0,13.4,1505.2,333.8,-0.8,1.8,2471.483,13.29,0.027,300.3
2023-06-20T02:19:03,42.805,6.029,-0.039,0.01,-0.05,102.0,101.0,99.0,13.4,1505.2,345.6,-0.7,1.8,2471.459,13.29,0.04,284.4
2023-06-20T02:22:03,42.805,6.029,-0.059,0.012,-0.019,99.0,100.0,101.0,13.4,1505.2,331.8,-0.8,1.8,2471.45,13.29,0.06,281.5
2023-06-20T02:25:03,42.805,6.029,-0.002,0.0,-0.025,99.0,101.0,100.0,13.3,1505.2,332.6,-0.8,1.8,2471.467,13.29,0.002,270.0
2023-06-20T02:28:03,42.805,6.029,-0.033,-0.016,-0.069,101.0,100.0,100.0,13.4,1505.2,341.9,-0.8,1.8,2471.428,13.29,0.036,244.1
2023-06-20T02:31:03,42.805,6.029,-0.036,0.019,-0.04,101.0,101.0,102.0,13.3,1505.2,347.5,-0.7,1.8,2471.432,13.29,0.04,297.8
2023-06-20T02:34:03,42.805,6.029,-0.024,-0.007,-0.04,103.0,99.0,100.0,13.4,1505.2,337.3,-0.8,1.8,2471.405,13.29,0.025,253.7
2023-06-20T02:37:03,42.805,6.029,-0.052,0.003,-0.056,100.0,99.0,100.0,13.3,1505.2,340.6,-0.7,1.8,2471.432,13.29,0.052,273.3
2023-06-20T02:40:03,42.805,6.029,-0.048,0.001,-0.061,101.0,101.0,100.0,13.3,1505.2,340.8,-0.7,1.8,2471.428,13.29,0.048,271.2
2023-06-20T02:43:03,42.805,6.029,-0.027,0.038,0.021,101.0,101.0,100.0,13.4,1505.2,346.7,-0.7,1.8,2471.455,13.29,0.046,324.6
2023-06-20T02:46:03,42.805,6.029,-0.051,0.029,-0.009,102.0,101.0,99.0,13.4,1505.2,329.8,-0.7,1.8,2471.427,13.29,0.058,299.6
2023-06-20T02:49:03,42.805,6.029,-0.061,0.041,0.016,100.0,100.0,101.0,13.4,1505.2,327.7,-0.8,1.8,2471.448,13.29,0.073,303.9
2023-06-20T02:52:03,42.805,6.029,-0.038,0.036,-0.028,100.0,101.0,100.0,13.4,1505.2,330.8,-0.8,1.8,2471.455,13.29,0.052,313.5
2023-06-20T02:55:03,42.805,6.029,-0.059,0.034,-0.028,102.0,102.0,99.0,13.3,1505.2,337.1,-0.8,1.8,2471.446,13.29,0.068,300.0
2023-06-20T02:58:03,42.805,6.029,-0.037,0.013,-0.023,101.0,100.0,100.0,13.4,1505.2,330.3,-0.8,1.8,2471.389,13.29,0.039,289.4
2023-06-20T03:04:03,42.805,6.029,-0.026,0.024,-0.027,101.0,101.0,100.0,13.4,1505.2,347.7,-0.8,1.8,2471.488,13.28,0.035,312.7
2023-06-20T03:07:03,42.805,6.029,-0.036,0.001,-0.045,100.0,101.0,101.0,13.4,1505.2,319.0,-0.7,1.8,2471.491,13.28,0.036,271.6
2023-06-20T03:10:03,42.805,6.029,-0.007,0.001,-0.015,101.0,101.0,100.0,13.4,1505.2,340.1,-0.8,1.8,2471.466,13.28,0.007,278.1
2023-06-20T03:13:03,42.805,6.029,-0.053,0.017,-0.044,102.0,102.0,100.0,13.4,1505.2,330.9,-0.8,1.9,2471.429,13.29,0.055,287.8
2023-06-20T03:16:03,42.805,6.029,-0.052,0.03,-0.032,99.0,100.0,102.0,13.4,1505.2,337.6,-0.8,1.8,2471.461,13.29,0.06,300.0
2023-06-20T03:19:03,42.805,6.029,-0.061,0.022,-0.048,100.0,102.0,100.0,13.4,1505.2,336.1,-0.8,1.8,2471.454,13.29,0.064,289.8
2023-06-20T03:22:03,42.805,6.029,-0.027,0.013,-0.055,101.0,101.0,101.0,13.4,1505.2,345.2,-0.8,1.8,2471.444,13.29,0.029,295.7
2023-06-20T03:25:03,42.805,6.029,-0.026,0.023,-0.035,102.0,101.0,100.0,13.4,1505.2,326.3,-0.8,1.8,2471.404,13.29,0.034,311.5
2023-06-20T03:28:03,42.805,6.029,-0.051,0.021,-0.045,100.0,101.0,101.0,13.3,1505.2,344.7,-0.7,1.8,2471.439,13.29,0.055,292.4
2023-06-20T03:31:03,42.805,6.029,-0.054,0.032,-0.018,99.0,101.0,101.0,13.4,1505.2,329.3,-0.8,1.8,2471.468,13.29,0.062,300.7
2023-06-20T03:34:03,42.805,6.029,-0.028,-0.005,-0.052,103.0,100.0,100.0,13.3,1505.2,328.7,-0.8,1.8,2471.408,13.29,0.028,259.9
2023-06-20T03:37:03,42.805,6.029,-0.034,0.021,-0.035,100.0,101.0,101.0,13.4,1505.2,333.8,-0.7,1.8,2471.438,13.29,0.039,301.7
2023-06-20T03:40:03,42.805,6.029,-0.055,0.014,-0.054,100.0,102.0,101.0,13.4,1505.2,324.2,-0.8,1.8,2471.477,13.29,0.056,284.3
2023-06-20T03:43:03,42.805,6.029,-0.055,0.04,-0.058,101.0,102.0,101.0,13.3,1505.2,340.9,-0.7,1.8,2471.41,13.29,0.068,306.0
2023-06-20T03:46:03,42.805,6.029,-0.041,0.015,-0.003,102.0,100.0,101.0,13.4,1505.2,331.6,-0.7,1.8,2471.437,13.29,0.043,290.1
2023-06-20T03:49:03,42.805,6.029,-0.038,0.008,-0.037,101.0,102.0,100.0,13.3,1505.2,340.3,-0.7,1.8,2471.425,13.29,0.038,281.9
2023-06-20T03:52:03,42.805,6.029,-0.045,0.026,-0.023,102.0,100.0,100.0,13.4,1505.2,339.4,-0.8,1.8,2471.421,13.29,0.051,300.0
2023-06-20T03:55:03,42.805,6.029,-0.046,0.023,-0.05,101.0,100.0,101.0,13.4,1505.2,340.6,-0.8,1.8,2471.441,13.29,0.051,296.6
2023-06-20T03:58:03,42.805,6.029,-0.047,-0.001,-0.057,101.0,101.0,100.0,13.4,1505.2,331.1,-0.8,1.8,2471.428,13.29,0.047,268.8
2023-06-20T04:04:03,42.805,6.029,-0.023,0.017,-0.017,101.0,100.0,100.0,13.3,1505.2,335.2,-0.8,1.8,2471.511,13.28,0.028,306.5
2023-06-20T04:07:03,42.805,6.029,-0.063,0.02,-0.023,101.0,102.0,100.0,13.4,1505.2,326.3,-0.8,1.8,2471.478,13.28,0.066,287.6
2023-06-20T04:10:03,42.805,6.029,-0.052,0.016,-0.054,100.0,100.0,100.0,13.4,1505.2,335.8,-0.8,1.8,2471.432,13.28,0.054,287.1
2023-06-20T04:13:03,42.805,6.029,-0.053,0.021,-0.045,101.0,101.0,100.0,13.3,1505.2,338.8,-0.8,1.8,2471.443,13.29,0.057,291.6
2023-06-20T04:16:03,42.805,6.029,-0.054,0.035,-0.016,101.0,101.0,100.0,13.4,1505.2,322.2,-0.8,1.8,2471.45,13.29,0.064,303.0
2023-06-20T04:19:03,42.805,6.029,-0.032,0.018,-0.047,101.0,102.0,100.0,13.3,1505.2,342.2,-0.8,1.8,2471.478,13.29,0.036,299.4
2023-06-20T04:22:03,42.805,6.029,-0.025,0.001,-0.053,101.0,100.0,100.0,13.4,1505.2,350.7,-0.8,1.8,2471.458,13.29,0.025,272.3
2023-06-20T04:25:03,42.805,6.029,-0.048,0.013,-0.046,101.0,100.0,101.0,13.4,1505.2,335.0,-0.8,1.8,2471.437,13.29,0.049,285.2
2023-06-20T04:28:03,42.805,6.029,-0.061,0.032,0.004,101.0,101.0,100.0,13.3,1505.2,327.1,-0.7,1.8,2471.453,13.29,0.068,297.7
2023-06-20T04:31:03,42.805,6.029,-0.02,0.002,-0.075,101.0,100.0,100.0,13.3,1505.2,340.5,-0.8,1.8,2471.413,13.29,0.02,275.7
2023-06-20T04:34:03,42.805,6.029,-0.054,0.029,-0.013,101.0,101.0,100.0,13.4,1505.2,326.8,-0.8,1.8,2471.457,13.29,0.061,298.2
2023-06-20T04:37:03,42.805,6.029,-0.048,0.022,-0.013,101.0,100.0,100.0,13.3,1505.2,331.8,-0.8,1.8,2471.445,13.29,0.052,294.6
2023-06-20T04:40:03,42.805,6.029,-0.023,0.032,-0.009,101.0,100.0,101.0,13.3,1505.2,323.3,-0.7,1.8,2471.46,13.29,0.039,324.3
2023-06-20T04:43:03,42.805,6.029,-0.022,0.019,-0.051,101.0,101.0,100.0,13.4,1505.2,338.4,-0.8,1.8,2471.437,13.29,0.029,310.8
2023-06-20T04:46:03,42.805,6.029,-0.046,0.019,-0.062,101.0,101.0,99.0,13.4,1505.2,329.0,-0.8,1.8,2471.458,13.29,0.049,292.4
2023-06-20T04:49:03,42.805,6.029,-0.066,0.028,-0.016,101.0,100.0,100.0,13.4,1505.2,329.1,-0.8,1.8,2471.43,13.29,0.071,293.0
2023-06-20T04:52:03,42.805,6.029,-0.026,0.003,-0.063,101.0,100.0,101.0,13.4,1505.2,339.8,-0.8,1.8,2471.448,13.29,0.026,276.6
2023-06-20T04:55:03,42.805,6.029,-0.018,0.006,-0.056,101.0,102.0,101.0,13.3,1505.2,327.3,-0.8,1.8,2471.472,13.29,0.018,288.4
2023-06-20T04:58:03,42.805,6.029,-0.016,-0.006,-0.042,102.0,101.0,100.0,13.4,1505.2,341.5,-0.8,1.8,2471.441,13.29,0.017,249.4
2023-06-20T05:04:03,42.805,6.029,-0.032,0.017,-0.019,100.0,101.0,101.0,13.4,1505.2,330.3,-0.7,1.8,2471.501,13.28,0.036,298.0
2023-06-20T05:07:03,42.805,6.029,-0.043,0.016,-0.038,101.0,99.0,102.0,13.4,1505.2,328.6,-0.8,1.8,2471.445,13.28,0.045,290.4
2023-06-20T05:10:03,42.805,6.029,-0.032,-0.02,-0.063,101.0,101.0,100.0,13.4,1505.2,325.0,-0.8,1.8,2471.483,13.29,0.037,238.0
2023-06-20T05:13:03,42.805,6.029,-0.047,0.038,-0.043,101.0,101.0,100.0,13.4,1505.2,335.0,-0.8,1.8,2471.479,13.29,0.06,309.0
2023-06-20T05:16:03,42.805,6.029,-0.026,0.033,-0.033,100.0,101.0,100.0,13.3,1505.2,344.2,-0.8,1.8,2471.494,13.29,0.042,321.8
2023-06-20T05:19:03,42.805,6.029,0.0,0.009,0.01,101.0,100.0,101.0,13.4,1505.2,328.5,-0.8,1.8,2471.45,13.29,0.009,0.0
2023-06-20T05:22:03,42.805,6.029,0.003,0.006,-0.014,100.0,101.0,101.0,13.4,1505.2,345.7,-0.7,1.8,2471.431,13.29,0.006,26.6
2023-06-20T05:25:03,42.805,6.029,-0.042,0.008,-0.043,102.0,99.0,100.0,13.3,1505.2,334.4,-0.8,1.8,2471.446,13.29,0.042,280.8
2023-06-20T05:28:03,42.805,6.029,-0.042,-0.009,-0.036,101.0,101.0,101.0,13.4,1505.2,328.6,-0.8,1.8,2471.47,13.29,0.042,257.9
2023-06-20T05:31:03,42.805,6.029,-0.035,0.014,-0.038,101.0,100.0,100.0,13.4,1505.2,320.1,-0.8,1.8,2471.435,13.29,0.037,291.8
2023-06-20T05:34:03,42.805,6.029,-0.051,0.037,-0.031,101.0,101.0,100.0,13.3,1505.2,325.0,-0.8,1.8,2471.468,13.29,0.063,306.0
2023-06-20T05:37:03,42.805,6.029,-0.04,-0.011,-0.054,101.0,101.0,101.0,13.4,1505.2,320.7,-0.8,1.8,2471.442,13.29,0.041,254.6
2023-06-20T05:40:03,42.805,6.029,-0.034,0.014,-0.027,102.0,101.0,101.0,13.3,1505.2,334.3,-0.8,1.8,2471.428,13.29,0.036,292.4
2023-06-20T05:43:03,42.805,6.029,-0.04,0.02,-0.047,101.0,102.0,100.0,13.3,1505.2,345.3,-0.8,1.8,2471.519,13.29,0.044,296.6
2023-06-20T05:46:03,42.805,6.029,-0.023,0.018,-0.019,101.0,101.0,101.0,13.4,1505.2,335.0,-0.8,1.8,2471.464,13.29,0.029,308.0
2023-06-20T05:49:03,42.805,6.029,-0.028,0.024,-0.043,101.0,102.0,100.0,13.4,1505.2,331.7,-0.8,1.8,2471.459,13.29,0.036,310.6
2023-06-20T05:52:03,42.805,6.029,-0.066,0.01,-0.059,101.0,101.0,100.0,13.4,1505.2,322.5,-0.8,1.8,2471.466,13.29,0.066,278.6
2023-06-20T05:55:03,42.805,6.029,-0.051,0.013,-0.057,101.0,101.0,100.0,13.4,1505.2,333.9,-0.7,1.8,2471.479,13.29,0.052,284.3
2023-06-20T05:58:03,42.805,6.029,-0.037,0.014,-0.038,101.0,100.0,101.0,13.4,1505.2,323.1,-0.8,1.8,2471.477,13.29,0.039,290.7
2023-06-20T06:04:03,42.805,6.029,-0.044,0.041,-0.046,101.0,101.0,100.0,13.3,1505.2,342.7,-0.7,1.8,2471.514,13.28,0.06,313.0
2023-06-20T06:07:03,42.805,6.029,-0.042,0.024,-0.033,102.0,101.0,100.0,13.3,1505.2,326.0,-0.7,1.8,2471.552,13.28,0.048,299.7
2023-06-20T06:10:03,42.805,6.029,-0.031,0.026,-0.049,101.0,102.0,101.0,13.4,1505.2,341.2,-0.7,1.8,2471.532,13.29,0.04,310.0
2023-06-20T06:13:03,42.805,6.029,-0.042,0.043,-0.028,101.0,100.0,100.0,13.4,1505.2,347.0,-0.8,1.8,2471.549,13.29,0.06,315.7
2023-06-20T06:16:03,42.805,6.029,-0.037,0.014,-0.043,101.0,101.0,100.0,13.4,1505.2,331.2,-0.8,1.8,2471.494,13.29,0.039,290.7
2023-06-20T06:19:03,42.805,6.029,-0.055,0.01,-0.033,101.0,101.0,101.0,13.4,1505.2,323.7,-0.7,1.8,2471.492,13.29,0.055,280.3
2023-06-20T06:22:03,42.805,6.029,-0.038,0.031,-0.015,101.0,101.0,100.0,13.3,1505.2,331.3,-0.8,1.8,2471.514,13.29,0.049,309.2
2023-06-20T06:25:03,42.805,6.029,-0.02,-0.007,-0.029,101.0,101.0,100.0,13.4,1505.2,328.4,-0.8,1.8,2471.518,13.29,0.021,250.7
2023-06-20T06:28:03,42.805,6.029,-0.01,-0.002,-0.039,100.0,101.0,101.0,13.3,1505.2,339.9,-0.7,1.8,2471.516,13.29,0.01,258.7
2023-06-20T06:31:03,42.805,6.029,-0.03,0.014,-0.03,102.0,101.0,100.0,13.4,1505.2,341.2,-0.8,1.8,2471.549,13.29,0.033,295.0
2023-06-20T06:34:03,42.805,6.029,-0.045,0.017,-0.038,100.0,101.0,100.0,13.3,1505.2,337.8,-0.7,1.8,2471.489,13.29,0.048,290.7
2023-06-20T06:37:03,42.805,6.029,-0.022,0.032,-0.045,102.0,102.0,101.0,13.4,1505.2,346.5,-0.7,1.8,2471.514,13.29,0.038,325.5
2023-06-20T06:40:03,42.805,6.029,-0.024,0.027,-0.013,101.0,101.0,100.0,13.3,1505.2,321.3,-0.7,1.8,2471.493,13.29,0.036,318.4
2023-06-20T06:43:03,42.805,6.029,-0.072,0.01,-0.054,100.0,101.0,101.0,13.4,1505.2,323.1,-0.8,1.8,2471.495,13.29,0.072,277.9
2023-06-20T06:46:03,42.805,6.029,-0.029,0.0,-0.053,102.0,100.0,100.0,13.3,1505.2,330.3,-0.8,1.8,2471.491,13.29,0.028,270.0
2023-06-20T06:49:03,42.805,6.029,-0.047,0.014,-0.055,101.0,102.0,101.0,13.4,1505.2,329.9,-0.8,1.8,2471.492,13.29,0.049,286.6
2023-06-20T06:52:03,42.805,6.029,-0.018,0.008,-0.05,102.0,100.0,101.0,13.3,1505.2,323.3,-0.8,1.8,2471.479,13.29,0.019,294.0
2023-06-20T06:55:03,42.805,6.029,-0.035,0.028,0.008,102.0,101.0,100.0,13.4,1505.2,335.7,-0.8,1.8,2471.508,13.29,0.044,308.7
2023-06-20T06:58:03,42.805,6.029,-0.019,0.008,-0.039,101.0,101.0,100.0,13.4,1505.2,348.0,-0.8,1.8,2471.495,13.29,0.02,292.8
2023-06-20T07:04:03,42.805,6.029,-0.054,0.031,-0.026,101.0,101.0,100.0,13.4,1505.2,340.5,-0.8,1.8,2471.578,13.28,0.062,299.9
2023-06-20T07:07:03,42.805,6.029,-0.043,0.017,-0.046,101.0,100.0,101.0,13.4,1505.2,339.0,-0.7,1.8,2471.564,13.28,0.046,291.6
2023-06-20T07:10:03,42.805,6.029,-0.05,0.022,-0.059,100.0,101.0,101.0,13.4,1505.2,333.4,-0.8,1.8,2471.558,13.29,0.054,293.7
2023-06-20T07:13:03,42.805,6.029,-0.032,0.037,-0.039,103.0,100.0,100.0,13.4,1505.2,337.1,-0.8,1.8,2471.558,13.29,0.048,319.1
2023-06-20T07:16:03,42.805,6.029,-0.034,0.012,-0.038,102.0,101.0,101.0,13.4,1505.2,341.9,-0.7,1.8,2471.545,13.29,0.036,289.4
2023-06-20T07:19:03,42.805,6.029,-0.038,-0.006,-0.066,101.0,101.0,100.0,13.4,1505.2,322.2,-0.7,1.8,2471.553,13.29,0.038,261.0
2023-06-20T07:22:03,42.805,6.029,-0.044,0.02,-0.077,103.0,100.0,100.0,13.4,1505.2,337.7,-0.8,1.8,2471.545,13.29,0.048,294.4
2023-06-20T07:25:03,42.805,6.029,-0.055,0.023,-0.047,100.0,100.0,100.0,13.3,1505.2,335.5,-0.7,1.8,2471.525,13.29,0.059,292.7
2023-06-20T07:28:03,42.805,6.029,-0.051,0.019,-0.042,101.0,101.0,101.0,13.4,1505.2,333.8,-0.8,1.8,2471.52,13.29,0.054,290.4
2023-06-20T07:31:03,42.805,6.029,-0.015,0.01,-0.036,101.0,100.0,100.0,13.4,1505.2,329.6,-0.8,1.8,2471.537,13.29,0.018,303.7
2023-06-20T07:34:03,42.805,6.029,-0.037,0.014,-0.063,100.0,101.0,100.0,13.4,1505.2,328.3,-0.8,1.8,2471.492,13.29,0.039,290.7
2023-06-20T07:37:03,42.805,6.029,-0.034,0.019,-0.028,101.0,101.0,100.0,13.4,1505.2,348.6,-0.8,1.8,2471.571,13.29,0.038,299.2
2023-06-20T07:40:03,42.805,6.029,-0.056,0.011,-0.028,101.0,100.0,101.0,13.4,1505.2,327.6,-0.8,1.9,2471.491,13.29,0.057,281.1
2023-06-20T07:43:03,42.805,6.029,-0.04,0.019,-0.033,100.0,101.0,101.0,13.4,1505.2,331.9,-0.8,1.8,2471.514,13.29,0.044,295.4
2023-06-20T07:46:03,42.805,6.029,-0.025,0.017,-0.053,101.0,101.0,100.0,13.4,1505.2,349.5,-0.8,1.8,2471.52,13.29,0.03,304.2
2023-06-20T07:49:03,42.805,6.029,-0.052,0.067,-0.007,101.0,99.0,100.0,13.4,1505.2,346.2,-0.8,1.8,2471.518,13.29,0.084,322.2
2023-06-20T07:52:03,42.805,6.029,-0.047,0.014,-0.075,100.0,102.0,101.0,13.3,1505.2,323.8,-0.8,1.8,2471.554,13.29,0.049,286.6
2023-06-20T07:55:03,42.805,6.029,-0.021,0.033,-0.021,101.0,100.0,101.0,13.4,1505.2,328.5,-0.8,1.8,2471.509,13.29,0.039,327.5
2023-06-20T07:58:03,42.805,6.029,-0.034,0.005,-0.064,101.0,101.0,100.0,13.4,1505.2,331.4,-0.8,1.8,2471.508,13.29,0.034,278.4
2023-06-20T08:04:03,42.805,6.029,-0.027,0.015,-0.009,102.0,102.0,101.0,13.4,1505.2,327.6,-0.8,1.8,2471.549,13.28,0.03,299.1
2023-06-20T08:07:03,42.805,6.029,-0.013,0.015,0.001,101.0,100.0,100.0,13.4,1505.2,336.8,-0.8,1.8,2471.575,13.28,0.019,319.1
2023-06-20T08:10:03,42.805,6.029,-0.074,0.015,-0.059,102.0,98.0,101.0,13.4,1505.2,321.4,-0.8,1.8,2471.566,13.28,0.075,281.5
2023-06-20T08:13:03,42.805,6.029,-0.051,0.033,-0.027,101.0,100.0,100.0,13.3,1505.2,338.5,-0.7,1.8,2471.527,13.29,0.06,302.9
2023-06-20T08:16:03,42.805,6.029,-0.023,-0.005,-0.024,101.0,100.0,101.0,13.4,1505.2,325.3,-0.7,1.8,2471.517,13.29,0.023,257.7
2023-06-20T08:19:03,42.805,6.029,-0.037,-0.004,-0.048,101.0,100.0,100.0,13.4,1505.2,323.3,-0.8,1.8,2471.554,13.29,0.037,263.8
2023-06-20T08:22:03,42.805,6.029,-0.001,0.009,0.006,100.0,101.0,100.0,13.3,1505.2,337.3,-0.8,1.8,2471.525,13.29,0.009,353.7
2023-06-20T08:25:03,42.805,6.029,-0.018,0.033,-0.03,100.0,100.0,101.0,13.4,1505.2,350.5,-0.8,1.8,2471.546,13.29,0.037,331.4
2023-06-20T08:28:03,42.805,6.029,-0.04,0.012,-0.047,101.0,102.0,101.0,13.4,1505.2,327.1,-0.8,1.8,2471.578,13.29,0.041,286.7
2023-06-20T08:31:03,42.805,6.029,-0.038,0.016,-0.007,100.0,100.0,101.0,13.4,1505.2,331.9,-0.7,1.8,2471.541,13.29,0.041,292.8
2023-06-20T08:34:03,42.805,6.029,-0.038,0.02,-0.042,102.0,101.0,101.0,13.4,1505.2,319.6,-0.8,1.8,2471.522,13.29,0.042,297.8
2023-06-20T08:37:03,42.805,6.029,-0.012,0.021,-0.065,101.0,101.0,101.0,13.4,1505.2,342.5,-0.8,1.8,2471.542,13.29,0.024,330.3
2023-06-20T08:40:03,42.805,6.029,-0.056,0.047,-0.016,101.0,101.0,100.0,13.4,1505.2,331.4,-0.7,1.8,2471.566,13.29,0.073,310.0
2023-06-20T08:43:03,42.805,6.029,-0.058,0.012,-0.047,101.0,101.0,100.0,13.4,1505.2,321.4,-0.8,1.8,2471.544,13.29,0.059,281.7
2023-06-20T08:46:03,42.805,6.029,-0.064,0.044,-0.026,101.0,101.0,101.0,13.4,1505.2,340.8,-0.8,1.8,2471.522,13.29,0.077,304.5
2023-06-20T08:49:03,42.805,6.029,-0.038,-0.001,-0.05,102.0,101.0,101.0,13.4,1505.2,324.5,-0.7,1.8,2471.525,13.29,0.038,268.5
2023-06-20T08:52:03,42.805,6.029,-0.048,0.03,-0.039,101.0,101.0,100.0,13.4,1505.2,332.8,-0.8,1.8,2471.517,13.29,0.056,302.0
2023-06-20T08:55:03,42.805,6.029,-0.039,-0.024,-0.054,101.0,100.0,100.0,13.4,1505.2,322.7,-0.8,1.9,2471.5,13.29,0.045,238.4
2023-06-20T08:58:03,42.805,6.029,-0.05,0.014,-0.023,101.0,101.0,101.0,13.4,1505.2,322.9,-0.7,1.8,2471.519,13.29,0.051,285.6
2023-06-20T09:04:03,42.805,6.029,-0.033,-0.002,-0.014,102.0,101.0,100.0,13.3,1505.2,325.3,-0.8,1.8,2471.54,13.28,0.033,266.5
2023-06-20T09:07:03,42.805,6.029,-0.03,0.008,-0.023,101.0,100.0,101.0,13.3,1505.2,347.3,-0.7,1.8,2471.538,13.28,0.031,284.9
2023-06-20T09:10:03,42.805,6.029,-0.027,-0.002,-0.05,101.0,101.0,100.0,13.3,1505.2,326.5,-0.8,1.8,2471.532,13.28,0.027,265.8
2023-06-20T09:13:03,42.805,6.029,-0.015,0.018,-0.029,101.0,101.0,100.0,13.4,1505.2,343.8,-0.7,1.8,2471.513,13.29,0.023,320.2
2023-06-20T09:16:03,42.805,6.029,-0.022,0.0,-0.03,100.0,102.0,100.0,13.3,1505.2,339.7,-0.8,1.8,2471.492,13.29,0.022,270.0
2023-06-20T09:19:03,42.805,6.029,-0.054,0.005,-0.028,102.0,101.0,101.0,13.4,1505.2,338.8,-0.7,1.8,2471.506,13.29,0.054,275.3
2023-06-20T09:22:03,42.805,6.029,-0.046,0.002,-0.02,101.0,101.0,101.0,13.3,1505.2,321.0,-0.8,1.8,2471.54,13.29,0.046,272.5
2023-06-20T09:25:03,42.805,6.029,-0.043,0.014,-0.03,101.0,101.0,100.0,13.4,1505.2,330.3,-0.8,1.8,2471.481,13.29,0.045,288.0
2023-06-20T09:28:03,42.805,6.029,-0.024,0.003,-0.013,101.0,101.0,101.0,13.4,1505.2,346.2,-0.8,1.8,2471.497,13.29,0.024,277.1
2023-06-20T09:31:03,42.805,6.029,-0.05,0.027,-0.02,102.0,100.0,101.0,13.4,1505.2,341.2,-0.8,1.8,2471.469,13.29,0.056,298.4
2023-06-20T09:34:03,42.805,6.029,-0.043,0.008,-0.052,100.0,102.0,101.0,13.4,1505.2,329.8,-0.8,1.8,2471.505,13.29,0.043,280.5
2023-06-20T09:37:03,42.805,6.029,-0.04,-0.013,-0.031,100.0,101.0,101.0,13.3,1505.2,322.7,-0.8,1.8,2471.474,13.29,0.042,252.0
2023-06-20T09:40:03,42.805,6.029,-0.027,-0.015,-0.039,101.0,101.0,101.0,13.3,1505.2,327.9,-0.8,1.8,2471.523,13.29,0.03,240.9
2023-06-20T09:43:03,42.805,6.029,-0.029,-0.005,-0.051,102.0,102.0,100.0,13.4,1505.2,322.7,-0.8,1.8,2471.483,13.29,0.029,260.2
2023-06-20T09:46:03,42.805,6.029,-0.007,-0.001,-0.011,103.0,102.0,100.0,13.3,1505.2,342.3,-0.7,1.8,2471.458,13.29,0.007,261.9
2023-06-20T09:49:03,42.805,6.029,-0.041,0.013,-0.075,102.0,102.0,101.0,13.4,1505.2,348.4,-0.8,1.8,2471.506,13.29,0.043,287.6
2023-06-20T09:52:03,42.805,6.029,-0.028,-0.01,-0.044,102.0,101.0,101.0,13.4,1505.2,329.9,-0.8,1.8,2471.5,13.29,0.029,250.4